World > North America > United States > Michigan > Caseville  

Caseville, MI Hourly Weather Updates

Feedback E-mail the Weather

Quick Clicks

Caseville, MI Weather Maps

°F °C°F °C
Caseville Weather Map
UTC Time: 5/27/2024, 13:34
Your Time:

Caseville, MI Regional Weather

Expires:202405271400;;964619
ASUS43 KDTX 271310
RWRMI 
MICHIGAN HOURLY REGIONAL WEATHER ROUNDUP
NATIONAL WEATHER SERVICE DETROIT/PONTIAC MI
900 AM EDT MON MAY 27 2024

NOTE: "FAIR" INDICATES FEW OR NO CLOUDS BELOW 12,000 FEET WITH NO
SIGNIFICANT WEATHER AND/OR OBSTRUCTION TO VISIBILITY.


MIZ047>049-052>055-059>063-066>070-074>076-081>083-271400-
SOUTHEAST LOWER MICHIGAN
  
CITY           SKY/WX    TMP DP  RH WIND       PRES   REMARKS
ADRIAN         PTSUNNY   67  62  84 SW9G18    29.52R TC  19           
ALMA           CLOUDY    58  55  87 SW7       29.48S TC  15           
ANN ARBOR      PTSUNNY   63  61  93 SW7       29.49R TC  17           
BAD AXE        LGT RAIN  58  55  89 NW3       29.46F TC  15           
CARO           CLOUDY    59  59  99 E5        29.45F FOG     TC  15   
DETROIT CITY   CLOUDY    66  61  84 SW6       29.49R TC  19           
DETROIT        CLOUDY    64  61  90 SW8       29.49R TC  18           
FLINT          CLOUDY    64  62  93 S6        29.47R TC  18           
GROSSE ILE     CLOUDY    65  59  81 S6        29.49R TC  18           
HILLSDALE      CLOUDY    57  51  79 W10G18    29.54R HAZE    TC  14   
HOWELL         CLOUDY    62  61  97 SW5       29.49R TC  17           

CITY           SKY/WX    TMP DP  RH WIND       PRES   REMARKS
JACKSON        CLOUDY    59  57  93 W14G23    29.51R TC  15           
LAMBERTVILLE   MOSUNNY   67  64  91 W5        29.50R TC  19           
LANSING        CLOUDY    57  55  93 W13       29.50R TC  14           
LAPEER         CLOUDY    61  61 100 S3        29.46S TC  16           
MASON          CLOUDY    60  56  88 W13G18    29.51R TC  16           
MONROE         PTSUNNY   66  64  95 S6        29.49S TC  19           
MT. CLEMENS    CLOUDY    64  62  94 S3        29.45R TC  18           
PONTIAC        CLOUDY    64  60  87 SW3       29.50R TC  18           
PORT HOPE        N/A     57  53  86 VRB3      29.47F TC  14           
PORT HURON     LGT RAIN  61  59  94 CALM      29.49R TC  16           
TRI CITIES     CLOUDY    61  59  93 SE3       29.47S FOG     TC  16   
MIDLAND        CLOUDY    61  60  97 E5        29.46S FOG     TC  16   
TROY           CLOUDY    64  60  87 SW6       29.50R TC  18           
SAGINAW HB     LGT RAIN  61  59  94 VRB1      29.45S FOG     TC  16   
$$

SKY/WX - Weather  TMP - Temperature  DP - Dew Point  RH - Humidity
WIND - Wind Direction/Speed PRES - Barometric Pressure VSB - Visibility
WCI - Wind Chill Index E13G22 Wind - East Wind 13 mph/Gusts of 22 mph

Trending Headlines

Trending Entertainment Headlines

Caseville Radar Loop

Use the map search tool if you want to place a location marker on the radar map...

Caseville Quick Facts

National Two Day Weather Forecast


E-mail the Caseville Weather Forecast

Voice your opinion or tell us about page issues...